Weather History for KCUL - April, 2013

Change the Weather History Date:

Wednesday, April 24, 2013

  Actual Average (KEVV) Record (KEVV)
Temperature  
Mean Temperature 46 °F 59 °F  
Max Temperature 51 °F 71 °F 89 °F (1925)
Min Temperature 40 °F 47 °F 30 °F (1963)
Degree Days  
Heating Degree Days 20 7  
Month to date heating degree days 252  
Since 1 July heating degree days 4418  
Cooling Degree Days 0 1  
Month to date cooling degree days 16  
Year to date cooling degree days 19  
Moisture  
Dew Point 40 °F    
Average Humidity 81    
Maximum Humidity 95    
Minimum Humidity 56    
Precipitation  
Precipitation 0.24 in 0.16 in 1.95 in (1975)
Month to date precipitation 3.40  
Year to date precipitation 13.91  
Snow  
Snow 0.00 in 0.00 in 0.00 in (2002)
Month to date snowfall 0.1  
Since 1 July snowfall 11.8  
Snow Depth -    
Sea Level Pressure  
Sea Level Pressure 30.10 in    
Wind  
Wind Speed 12 mph (WNW)    
Max Wind Speed 20 mph    
Max Gust Speed 29 mph    
Visibility 9 miles    
Events Rain , Thunderstorm    
T = Trace of Precipitation, MM = Missing Value Source: NWS Daily Summary

Daily Weather History Graph

Daily Weather History Graph

Search for Another Location

Airport or City:

Trip Planner

Search our weather history database for the weather conditions in past years. The results will help you decide how hot, cold, wet, or windy it might be!

Date:

Astronomy

Apr. 24, 2013 Rise Set
Actual Time 6:04 AM CDT 7:37 PM CDT
Civil Twilight 5:36 AM CDT 8:05 PM CDT
Nautical Twilight 5:03 AM CDT 8:38 PM CDT
Astronomical Twilight 4:27 AM CDT 9:14 PM CDT
Moon 6:40 PM CDT (4/24) 5:06 AM CDT (4/24)
Length of Visible Light 14h 28m
Length of Day
13h 32m
Waxing Gibbous, 98% of the Moon is Illuminated
Apr 24
Waxing Gibbous
Apr 25
Full
May 2
Last Quarter
May 9
New
May 17
First Quarter

Hourly Weather History & Observations

Time (CDT) Temp. Windchill Dew Point Humidity Pressure Visibility Wind Dir Wind Speed Gust Speed Precip Events Conditions
12:15 AM 48.6 °F - 46.4 °F 92% 29.93 in 10.0 mi WNW 11.5 mph - 0.01 in Rain Rain
12:35 AM 48.4 °F - 46.6 °F 93% 29.94 in 7.0 mi WNW 13.8 mph - 0.01 in Rain Rain
12:55 AM 47.8 °F - 46.4 °F 95% 29.94 in 7.0 mi WNW 12.7 mph - 0.04 in Rain Rain
1:15 AM 47.5 °F - 45.9 °F 94% 29.93 in 7.0 mi WNW 10.4 mph - 0.01 in Rain Rain
1:35 AM 47.3 °F - 45.5 °F 93% 29.93 in 7.0 mi WNW 12.7 mph - 0.02 in   Light Drizzle
1:55 AM 46.4 °F 41.5 °F 44.6 °F 93% 29.93 in 5.0 mi NW 10.4 mph 18.4 mph 0.02 in Thunderstorm Drizzle
2:15 AM 45.9 °F 40.8 °F 44.2 °F 94% 29.93 in 7.0 mi NW 10.4 mph 17.3 mph 0.01 in   Drizzle
2:35 AM 45.7 °F 39.8 °F 43.9 °F 93% 29.93 in 10.0 mi NW 12.7 mph - 0.01 in   Light Drizzle
2:55 AM 45.5 °F 39.2 °F 43.5 °F 93% 29.93 in 7.0 mi WNW 13.8 mph 17.3 mph 0.01 in Rain Light Rain
3:15 AM 45.0 °F 38.2 °F 43.2 °F 93% 29.93 in 7.0 mi NW 15.0 mph - 0.01 in Rain Light Rain
3:35 AM 44.8 °F 37.7 °F 42.8 °F 93% 29.94 in 10.0 mi NW 16.1 mph 21.9 mph 0.01 in Rain Light Rain
3:55 AM 44.6 °F 39.7 °F 42.8 °F 93% 29.92 in 7.0 mi NW 9.2 mph - 0.04 in Rain Rain
4:15 AM 44.6 °F 38.1 °F 43.0 °F 94% 29.94 in 10.0 mi WNW 13.8 mph - 0.01 in Rain Light Rain
4:35 AM 43.9 °F 37.5 °F 42.3 °F 94% 29.93 in 7.0 mi NW 12.7 mph - 0.01 in   Light Drizzle
4:55 AM 43.7 °F 36.0 °F 42.3 °F 95% 29.96 in 10.0 mi WNW 17.3 mph 21.9 mph 0.03 in   Overcast
5:15 AM 43.7 °F 37.7 °F 41.9 °F 93% 29.95 in 10.0 mi NW 11.5 mph 19.6 mph N/A   Overcast
5:35 AM 43.2 °F 36.6 °F 41.5 °F 94% 29.95 in 10.0 mi NW 12.7 mph - N/A   Drizzle
5:55 AM 43.0 °F 37.2 °F 41.5 °F 95% 29.96 in 7.0 mi NW 10.4 mph - N/A Rain Rain
6:15 AM 42.8 °F 34.8 °F 41.2 °F 94% 29.94 in 5.0 mi NW 17.3 mph - 0.03 in Rain Light Rain
6:35 AM 42.8 °F 35.8 °F 41.0 °F 93% 29.95 in 10.0 mi NW 13.8 mph - 0.05 in Rain Light Rain
6:55 AM 42.8 °F 38.6 °F 41.0 °F 93% 29.98 in 10.0 mi NW 6.9 mph - 0.05 in Rain Light Rain
7:15 AM 43.0 °F 38.2 °F 41.4 °F 94% 29.99 in 7.0 mi WNW 8.1 mph - 0.02 in Rain Rain
7:35 AM 42.8 °F 37.0 °F 41.4 °F 95% 29.97 in 7.0 mi NNW 10.4 mph - 0.04 in Rain Light Rain
7:55 AM 42.8 °F 37.0 °F 41.2 °F 94% 29.99 in 10.0 mi NW 10.4 mph - 0.05 in Rain Rain
8:15 AM 42.8 °F 35.1 °F 40.8 °F 93% 30.00 in 10.0 mi NW 16.1 mph - N/A   Overcast
8:35 AM 42.8 °F 34.5 °F 40.6 °F 92% 30.04 in 10.0 mi WNW 18.4 mph 23.0 mph N/A   Overcast
8:55 AM 43.0 °F 35.7 °F 40.8 °F 92% 30.05 in 7.0 mi NW 15.0 mph 21.9 mph N/A   Overcast
9:15 AM 43.0 °F 35.7 °F 41.0 °F 93% 30.07 in 3.0 mi NW 15.0 mph - N/A   Overcast
9:35 AM 43.2 °F 36.6 °F 41.7 °F 95% 30.07 in 1.8 mi WNW 12.7 mph - N/A   Overcast
9:55 AM 43.7 °F 37.3 °F 41.9 °F 93% 30.06 in 3.0 mi NW 12.7 mph 24.2 mph N/A   Overcast
10:15 AM 45.9 °F 39.4 °F 43.2 °F 90% 30.07 in 10.0 mi NW 15.0 mph 25.3 mph N/A   Overcast
10:35 AM 45.5 °F 39.6 °F 41.5 °F 86% 30.08 in 10.0 mi NW 12.7 mph 20.7 mph N/A   Overcast
10:55 AM 45.5 °F 38.1 °F 40.8 °F 84% 30.10 in 10.0 mi NW 18.4 mph 26.5 mph N/A   Overcast
11:15 AM 46.2 °F 40.1 °F 41.0 °F 82% 30.12 in 10.0 mi WNW 13.8 mph 23.0 mph N/A   Overcast
11:35 AM 46.4 °F 39.0 °F 40.6 °F 80% 30.14 in 10.0 mi WNW 19.6 mph 26.5 mph N/A   Overcast
11:55 AM 45.5 °F 38.9 °F 39.2 °F 79% 30.15 in 10.0 mi WNW 15.0 mph 24.2 mph N/A   Overcast
12:15 PM 45.5 °F 38.6 °F 38.7 °F 77% 30.15 in 10.0 mi NW 16.1 mph 28.8 mph N/A   Overcast
12:35 PM 46.6 °F - 39.2 °F 75% 30.16 in 10.0 mi WNW 19.6 mph - N/A   Overcast
12:55 PM 45.9 °F 38.5 °F 37.6 °F 73% 30.17 in 10.0 mi NW 18.4 mph - N/A   Overcast
1:15 PM 46.9 °F - 38.5 °F 72% 30.17 in 10.0 mi WNW 12.7 mph 18.4 mph N/A   Overcast
1:35 PM 47.3 °F - 39.2 °F 73% 30.17 in 10.0 mi WNW 11.5 mph - N/A   Overcast
1:55 PM 48.4 °F - 39.6 °F 72% 30.19 in 10.0 mi WNW 10.4 mph 17.3 mph N/A   Overcast
2:15 PM 48.2 °F - 37.8 °F 67% 30.19 in 10.0 mi WNW 13.8 mph 20.7 mph N/A   Overcast
2:35 PM 47.7 °F - 37.8 °F 69% 30.19 in 10.0 mi West 12.7 mph - N/A   Overcast
2:55 PM 48.6 °F - 38.1 °F 67% 30.20 in 10.0 mi WNW 13.8 mph 20.7 mph N/A   Overcast
3:15 PM 49.3 °F - 38.5 °F 66% 30.20 in 10.0 mi WSW 12.7 mph 19.6 mph N/A   Overcast
3:35 PM 50.5 °F - 37.6 °F 61% 30.21 in 10.0 mi WNW 13.8 mph 21.9 mph N/A   Overcast
3:55 PM 49.6 °F - 37.8 °F 64% 30.21 in 10.0 mi WNW 12.7 mph - N/A   Mostly Cloudy
4:15 PM 50.0 °F - 37.4 °F 62% 30.21 in 10.0 mi West 13.8 mph 18.4 mph N/A   Overcast
4:35 PM 49.1 °F - 37.0 °F 63% 30.21 in 10.0 mi West 10.4 mph - N/A   Overcast
4:55 PM 51.8 °F - 36.5 °F 56% 30.21 in 10.0 mi WNW 8.1 mph 16.1 mph N/A   Mostly Cloudy
5:15 PM 49.5 °F - 36.3 °F 61% 30.21 in 10.0 mi WNW 6.9 mph - N/A   Scattered Clouds
5:35 PM 49.6 °F - 36.3 °F 60% 30.22 in 10.0 mi NW 5.8 mph - N/A   Mostly Cloudy
5:55 PM 50.7 °F - 35.8 °F 57% 30.22 in 10.0 mi WNW 8.1 mph - N/A   Mostly Cloudy
6:15 PM 50.4 °F - 35.1 °F 56% 30.22 in 10.0 mi WNW 5.8 mph - N/A   Scattered Clouds
6:35 PM 49.6 °F - 34.9 °F 57% 30.22 in 10.0 mi WNW 4.6 mph - N/A   Clear
6:55 PM 49.5 °F - 34.9 °F 57% 30.22 in 10.0 mi West 8.1 mph - N/A   Scattered Clouds
7:15 PM 48.4 °F - 35.4 °F 61% 30.23 in 10.0 mi West 3.5 mph - N/A   Clear
7:35 PM 46.8 °F - 36.1 °F 67% 30.23 in 10.0 mi West 4.6 mph - N/A   Clear
7:55 PM 45.3 °F 42.3 °F 35.4 °F 68% 30.24 in 10.0 mi West 5.8 mph - N/A   Clear
8:15 PM 45.1 °F 42.8 °F 36.9 °F 73% 30.24 in 10.0 mi WSW 4.6 mph - N/A   Clear
8:35 PM 44.4 °F 42.0 °F 35.6 °F 71% 30.25 in 10.0 mi West 4.6 mph - N/A   Clear
8:55 PM 43.2 °F - 35.8 °F 75% 30.25 in 10.0 mi Calm Calm - N/A   Clear
10:15 PM 42.4 °F - 38.1 °F 85% 30.27 in 10.0 mi Calm Calm - N/A   Clear
10:35 PM 41.5 °F 39.6 °F 38.8 °F 90% 30.28 in 10.0 mi South 3.5 mph - N/A   Clear
10:55 PM 40.6 °F 38.6 °F 37.0 °F 87% 30.28 in 10.0 mi SSW 3.5 mph - N/A   Clear
11:15 PM 40.1 °F - 37.6 °F 91% 30.28 in 10.0 mi Calm Calm - N/A   Clear
11:35 PM 41.2 °F 39.2 °F 38.3 °F 89% 30.28 in 10.0 mi South 3.5 mph - N/A   Clear
11:55 PM 40.8 °F - 38.8 °F 93% 30.27 in 10.0 mi Calm Calm - N/A   Clear